Location: Unspecified
(50.7693°N, 0.0000°E)
Time: 01:46:02
(UTC+00:00)

SR - Pass Details

Date: 30 June 2019
Orbit: 578 x 878 km, 66.7° (Epoch: 19 August)

Event Time Altitude Azimuth Distance (km) Brightness Sun altitude
Rises 03:19:47 0° 247° (WSW) 2,793 - -4.4°
Exits shadow 03:20:31 - 249° (WSW) 2,516 ? -4.3°
Reaches altitude 10° 03:22:10 10° 257° (WSW) 1,909 ? -4.1°
Maximum altitude 03:26:00 31° 321° (NW) 1,057 ? -3.7°
Drops below altitude 10° 03:30:01 10° 25° (NNE) 2,009 ? -3.2°
Sets 03:32:35 0° 36° (NE) 2,965 ? -2.9°
